• En España
  • Lista de países
  • Para 7 días
  • Temperatura del agua
  • Mapa Satelital
  • El tiempo en el mapa
  • Informadores
  • user-avatar
    Iniciar sesión

    Tiempo cada hora Kotonu

    Hoy, 17 Octubre, Miércoles

    Tiempo Temperatura Precipitaciones Viento Presión Humedad
    00:00 +27°C° 0 mm 1 mps 760 mmHg 83%
    01:00 +27°C° 0 mm 1 mps 759 mmHg 84%
    02:00 +27°C° 0 mm 1 mps 759 mmHg 84%
    03:00 +27°C° 0 mm 1 mps 759 mmHg 85%
    04:00 +26°C° 0 mm 1 mps 759 mmHg 85%
    05:00 +26°C° 0 mm 1 mps 759 mmHg 86%
    06:00 +26°C° 0 mm 1 mps 759 mmHg 87%
    07:00 +28°C° 0 mm 1 mps 759 mmHg 79%
    08:00 +30°C° 0 mm 2 mps 759 mmHg 71%
    09:00 +32°C° 0 mm 2 mps 759 mmHg 62%
    10:00 +34°C° 0 mm 3 mps 759 mmHg 58%
    11:00 +35°C° 0 mm 3 mps 759 mmHg 54%
    12:00 +37°C° 0 mm 3 mps 758 mmHg 50%
    13:00 +36°C° 0 mm 4 mps 758 mmHg 52%
    14:00 +35°C° 0 mm 4 mps 757 mmHg 54%
    15:00 +35°C° 0 mm 4 mps 756 mmHg 57%
    16:00 +33°C° 0.2 mm 4 mps 757 mmHg 63%
    17:00 +32°C° 0.2 mm 4 mps 757 mmHg 69%
    18:00 +30°C° 0.2 mm 4 mps 757 mmHg 76%
    19:00 +29°C° 0.3 mm 4 mps 758 mmHg 78%
    20:00 +29°C° 0.3 mm 4 mps 758 mmHg 80%
    21:00 +28°C° 0.3 mm 4 mps 759 mmHg 82%
    22:00 +28°C° 0.7 mm 4 mps 759 mmHg 83%
    23:00 +28°C° 0.7 mm 4 mps 758 mmHg 84%

    Mañana, 18 Octubre, Jueves

    Tiempo Temperatura Precipitaciones Viento Presión Humedad
    00:00 +28°C° 0.7 mm 3 mps 758 mmHg 85%
    01:00 +28°C° 0 mm 4 mps 758 mmHg 85%
    02:00 +28°C° 0 mm 4 mps 757 mmHg 85%
    03:00 +28°C° 0 mm 4 mps 757 mmHg 86%
    04:00 +28°C° 0 mm 4 mps 757 mmHg 87%
    05:00 +28°C° 0 mm 4 mps 757 mmHg 88%
    06:00 +27°C° 0 mm 4 mps 757 mmHg 89%
    07:00 +29°C° 0 mm 4 mps 757 mmHg 83%
    08:00 +30°C° 0 mm 4 mps 758 mmHg 76%
    09:00 +33°C° 0 mm 5 mps 758 mmHg 70%
    10:00 +33°C° 0 mm 5 mps 758 mmHg 66%
    11:00 +34°C° 0 mm 5 mps 757 mmHg 62%
    12:00 +35°C° 0 mm 5 mps 757 mmHg 59%
    13:00 +35°C° 0.1 mm 5 mps 756 mmHg 60%
    14:00 +35°C° 0.1 mm 5 mps 756 mmHg 61%
    15:00 +34°C° 0.1 mm 5 mps 755 mmHg 62%
    16:00 +33°C° 0 mm 5 mps 755 mmHg 67%
    17:00 +32°C° 0 mm 5 mps 756 mmHg 73%
    18:00 +29°C° 0 mm 5 mps 756 mmHg 78%
    19:00 +29°C° 0 mm 4 mps 757 mmHg 80%
    20:00 +29°C° 0 mm 4 mps 757 mmHg 82%
    21:00 +28°C° 0 mm 3 mps 758 mmHg 83%
    22:00 +28°C° 0.1 mm 3 mps 758 mmHg 84%
    23:00 +28°C° 0.1 mm 3 mps 758 mmHg 85%

    Pasado mañana, 19 Octubre, Viernes

    Tiempo Temperatura Precipitaciones Viento Presión Humedad
    00:00 +28°C° 0.1 mm 3 mps 758 mmHg 86%
    01:00 +28°C° 0 mm 4 mps 757 mmHg 86%
    02:00 +28°C° 0 mm 4 mps 757 mmHg 87%
    03:00 +27°C° 0 mm 4 mps 756 mmHg 87%
    04:00 +27°C° 0 mm 4 mps 756 mmHg 87%
    05:00 +27°C° 0 mm 4 mps 757 mmHg 87%
    06:00 +27°C° 0 mm 4 mps 757 mmHg 87%
    07:00 +29°C° 0 mm 3 mps 757 mmHg 79%
    08:00 +31°C° 0 mm 3 mps 758 mmHg 70%
    09:00 +34°C° 0 mm 3 mps 758 mmHg 61%
    10:00 +35°C° 0 mm 3 mps 758 mmHg 57%
    11:00 +36°C° 0 mm 4 mps 757 mmHg 53%
    12:00 +37°C° 0 mm 4 mps 757 mmHg 49%
    13:00 +36°C° 0 mm 4 mps 756 mmHg 51%
    14:00 +36°C° 0 mm 4 mps 756 mmHg 53%
    15:00 +35°C° 0 mm 4 mps 755 mmHg 55%
    16:00 +34°C° 0 mm 4 mps 755 mmHg 62%
    17:00 +32°C° 0 mm 4 mps 756 mmHg 69%
    18:00 +30°C° 0 mm 4 mps 756 mmHg 76%
    19:00 +29°C° 0 mm 4 mps 756 mmHg 79%
    20:00 +29°C° 0 mm 3 mps 757 mmHg 81%
    21:00 +29°C° 0 mm 3 mps 758 mmHg 83%
    22:00 +28°C° 0.2 mm 3 mps 757 mmHg 84%
    23:00 +28°C° 0.2 mm 3 mps 757 mmHg 86%

    20 Octubre, Sábado

    Tiempo Temperatura Precipitaciones Viento Presión Humedad
    00:00 +28°C° 0.2 mm 2 mps 757 mmHg 88%
    01:00 +28°C° 0 mm 3 mps 757 mmHg 89%
    02:00 +28°C° 0 mm 3 mps 756 mmHg 90%
    03:00 +27°C° 0 mm 3 mps 756 mmHg 90%
    04:00 +27°C° 0 mm 3 mps 756 mmHg 91%
    05:00 +27°C° 0 mm 3 mps 756 mmHg 91%
    06:00 +27°C° 0 mm 3 mps 757 mmHg 91%
    07:00 +29°C° 0 mm 3 mps 757 mmHg 85%
    08:00 +30°C° 0 mm 3 mps 758 mmHg 78%
    09:00 +31°C° 0 mm 3 mps 758 mmHg 72%
    10:00 +33°C° 0 mm 3 mps 758 mmHg 66%
    11:00 +35°C° 0 mm 3 mps 757 mmHg 60%
    12:00 +36°C° 0 mm 3 mps 757 mmHg 54%
    13:00 +36°C° 0 mm 3 mps 756 mmHg 55%
    14:00 +36°C° 0 mm 3 mps 755 mmHg 57%
    15:00 +35°C° 0 mm 4 mps 755 mmHg 58%
    16:00 +34°C° 0 mm 4 mps 755 mmHg 65%
    17:00 +31°C° 0 mm 3 mps 756 mmHg 72%
    18:00 +30°C° 0 mm 3 mps 756 mmHg 78%
    19:00 +29°C° 0 mm 3 mps 756 mmHg 80%
    20:00 +29°C° 0 mm 3 mps 757 mmHg 82%
    21:00 +29°C° 0 mm 3 mps 758 mmHg 84%
    22:00 +29°C° 0 mm 4 mps 757 mmHg 85%
    23:00 +28°C° 0 mm 4 mps 757 mmHg 86%

    21 Octubre, Domingo

    Tiempo Temperatura Precipitaciones Viento Presión Humedad
    00:00 +28°C° 0 mm 4 mps 757 mmHg 87%
    01:00 +28°C° 0 mm 4 mps 756 mmHg 88%
    02:00 +28°C° 0 mm 3 mps 756 mmHg 88%
    03:00 +28°C° 0 mm 3 mps 756 mmHg 88%
    04:00 +28°C° 0 mm 3 mps 756 mmHg 89%
    05:00 +28°C° 0 mm 3 mps 756 mmHg 89%
    06:00 +27°C° 0 mm 3 mps 756 mmHg 89%
    07:00 +29°C° 0 mm 3 mps 757 mmHg 81%
    08:00 +31°C° 0 mm 3 mps 757 mmHg 73%
    09:00 +34°C° 0 mm 3 mps 758 mmHg 64%
    10:00 +35°C° 0 mm 3 mps 757 mmHg 61%
    11:00 +35°C° 0 mm 3 mps 756 mmHg 57%
    12:00 +36°C° 0 mm 3 mps 756 mmHg 53%
    13:00 +36°C° 0 mm 3 mps 755 mmHg 55%
    14:00 +36°C° 0 mm 3 mps 755 mmHg 56%
    15:00 +35°C° 0 mm 3 mps 754 mmHg 57%
    16:00 +34°C° 0 mm 3 mps 755 mmHg 64%
    17:00 +31°C° 0 mm 3 mps 755 mmHg 70%
    18:00 +30°C° 0 mm 3 mps 755 mmHg 76%
    19:00 +30°C° 0 mm 3 mps 756 mmHg 78%
    20:00 +29°C° 0 mm 3 mps 756 mmHg 80%
    21:00 +29°C° 0 mm 3 mps 757 mmHg 83%
    22:00 +29°C° 0 mm 3 mps 756 mmHg 84%
    23:00 +29°C° 0 mm 3 mps 756 mmHg 85%

    22 Octubre, Lunes

    Tiempo Temperatura Precipitaciones Viento Presión Humedad
    00:00 +28°C° 0 mm 3 mps 756 mmHg 86%
    01:00 +28°C° 0 mm 3 mps 756 mmHg 87%
    02:00 +28°C° 0 mm 4 mps 755 mmHg 87%
    03:00 +28°C° 0 mm 4 mps 755 mmHg 88%
    04:00 +28°C° 0 mm 4 mps 755 mmHg 88%
    05:00 +28°C° 0 mm 3 mps 756 mmHg 88%
    06:00 +28°C° 0 mm 3 mps 756 mmHg 88%
    07:00 +29°C° 0 mm 3 mps 756 mmHg 80%
    08:00 +32°C° 0 mm 4 mps 757 mmHg 73%
    09:00 +34°C° 0 mm 4 mps 757 mmHg 65%
    10:00 +35°C° 0 mm 4 mps 756 mmHg 61%
    11:00 +36°C° 0 mm 4 mps 755 mmHg 57%
    12:00 +37°C° 0 mm 4 mps 755 mmHg 53%
    13:00 +36°C° 0 mm 4 mps 754 mmHg 55%
    14:00 +36°C° 0 mm 4 mps 754 mmHg 56%
    15:00 +35°C° 0 mm 4 mps 754 mmHg 58%
    16:00 +34°C° 0 mm 4 mps 754 mmHg 64%
    17:00 +32°C° 0 mm 4 mps 754 mmHg 70%
    18:00 +30°C° 0 mm 4 mps 755 mmHg 75%
    19:00 +29°C° 0 mm 4 mps 755 mmHg 77%
    20:00 +29°C° 0 mm 4 mps 756 mmHg 79%
    21:00 +29°C° 0 mm 4 mps 756 mmHg 81%
    22:00 +29°C° 0 mm 4 mps 756 mmHg 82%
    23:00 +29°C° 0 mm 4 mps 756 mmHg 83%
    Mostrar más